[[{"header":{"parameterUnit":"m.s-1","parameterCategory":1,"la1":30.2991,"la2":30.254,"lo1":-89.0895,"lo2":-89.0444,"dy":0.0017,"dx":0.0017,"nx":28,"ny":28,"refTime":"2025-11-06T09:00:00:Z","depth":0,"parameterNumber":2,"parameterNumberName":"U-component_of_WINDS"},"data":[0,0,0,0,0,0,0,0,0,0,0,0,0,0,0,0,0,0,0,0,0,0,0,0,0,0,0,0,0,0,0,0,0,0,0,0,0,0,0,0,0,0,0,0,0,0,0,0,0,0,0,0,0,0,0,0,0,0,-1.0315,-1.0315,0,-1.03,-1.0299,-1.0299,-1.0297,-1.0297,-1.0297,-1.0297,-1.0282,-1.0281,-1.0281,0,0,0,0,0,0,0,0,0,0,0,0,0,-1.0339,-1.0339,-1.0315,-1.0315,-1.0314,-1.03,-1.0299,-1.0299,-1.0297,-1.0297,-1.0297,-1.0298,-1.0282,-1.0282,-1.0281,0,0,0,0,0,0,0,0,0,0,0,0,0,-1.0327,-1.0339,-1.0315,-1.0312,-1.0311,-1.03,-1.0299,-1.0299,-1.0297,-1.0297,-1.0297,-1.0298,-1.0282,-1.0282,-1.0281,-1.0272,0,0,-1.0278,-1.0278,0,0,0,0,0,0,0,0,-1.0328,-1.0326,-1.0312,-1.0312,-1.0311,-1.03,-1.0302,-1.029,-1.0297,-1.0302,-1.0297,-1.0298,-1.0288,-1.0287,-1.0283,-1.0271,-1.027,-1.0278,-1.0278,-1.0277,-1.0277,0,0,0,0,0,0,0,-1.0329,-1.0327,-1.0309,-1.0312,-1.0311,-1.031,-1.0308,-1.03,-1.0294,-1.0302,-1.0302,-1.03,-1.0288,-1.0284,-1.0283,-1.027,-1.0278,-1.0278,-1.0277,-1.0277,-1.0244,-1.0244,0,0,0,0,0,0,-1.033,-1.0327,-1.0309,-1.0308,-1.032,-1.0309,-1.0308,-1.0304,-1.0294,-1.0293,-1.03,-1.03,-1.0285,-1.0284,-1.0282,-1.0268,-1.0277,-1.0277,-1.0276,-1.0244,-1.0244,-1.0243,0,0,0,0,0,0,-1.0331,-1.0329,-1.031,-1.0318,-1.0315,-1.0309,-1.0304,-1.0303,-1.03,-1.0293,-1.0291,-1.0297,-1.0286,-1.0284,-1.0273,-1.0267,-1.0276,-1.0276,-1.0245,-1.0244,-1.0244,-1.0241,0,0,0,0,0,0,-1.0331,-1.0329,-1.0326,-1.0318,-1.0315,-1.0302,-1.0304,-1.0303,-1.0298,-1.0298,-1.029,-1.0289,-1.0286,-1.0274,-1.0272,-1.0267,-1.0275,-1.0245,-1.0245,-1.0244,-1.0241,-1.024,-1.0239,0,0,0,0,0,-1.0332,-1.0327,-1.0326,-1.0324,-1.0311,-1.0302,-1.03,-1.0296,-1.0298,-1.0294,-1.0289,-1.0289,-1.0268,-1.0273,-1.0271,-1.0265,-1.0246,-1.0245,-1.0244,-1.0242,-1.024,-1.0239,0,0,0,0,0,0,-1.0336,-1.0326,-1.0325,-1.0317,-1.031,-1.0301,-1.0297,-1.0295,-1.0288,-1.0289,-1.0284,-1.0282,-1.0271,-1.0267,-1.0273,-1.0253,-1.0257,-1.0256,-1.0256,-1.0255,-1.0254,-1.0255,-1.0274,0,0,0,0,0,-1.0336,-1.0329,-1.0321,-1.0314,-1.0311,-1.0304,-1.03,-1.0297,-1.029,-1.0287,-1.0281,-1.0274,-1.0265,-1.026,-1.0252,-1.0241,-1.0237,-1.0235,-1.0234,-1.0233,-1.0231,-1.0221,-1.0219,-1.0241,-1.0241,-1.0241,0,0,-1.0336,-1.0329,-1.0326,-1.0315,-1.0309,-1.0301,-1.0302,-1.0294,-1.0287,-1.0286,-1.0275,-1.027,-1.0261,-1.0249,-1.0244,-1.0246,-1.0224,-1.0232,-1.0231,-1.023,-1.022,-1.0218,-1.0216,-1.024,-1.024,-1.024,0,0,-1.0331,-1.0327,-1.0319,-1.0312,-1.0303,-1.0298,-1.0296,-1.0287,-1.0283,-1.0272,-1.0269,-1.026,-1.0247,-1.0239,-1.0234,-1.0221,-1.022,-1.0219,-1.0213,-1.0203,-1.0201,-1.0199,-1.0192,-1.019,-1.0217,-1.0217,-1.0217,0,-1.0332,-1.032,-1.0315,-1.0306,-1.03,-1.0297,-1.0288,-1.0282,-1.027,-1.0266,-1.0268,-1.0247,-1.0242,-1.0226,-1.0222,-1.0219,-1.0214,-1.022,-1.0202,-1.02,-1.0199,-1.0191,-1.0189,-1.0217,-1.0217,-1.0217,-1.0217,0,-1.032,-1.0312,-1.0307,-1.0294,-1.0287,-1.0279,-1.0271,-1.0264,-1.0261,-1.0255,-1.0241,-1.0234,-1.0222,-1.0218,-1.0216,-1.0201,-1.0202,-1.0203,-1.0207,-1.0196,-1.0189,-1.0187,-1.0217,-1.0217,-1.0217,-1.0217,0,0,-1.032,-1.0302,-1.03,-1.0292,-1.028,-1.0273,-1.0262,-1.025,-1.0243,-1.0234,-1.0224,-1.021,-1.0209,-1.0203,-1.0199,-1.0191,-1.0177,-1.0192,-1.0192,-1.0188,-1.0156,-1.0154,-1.0151,-1.0176,-1.0175,-1.0175,-1.0155,0,-1.0312,-1.0294,-1.0287,-1.0271,-1.0261,-1.0256,-1.0246,-1.0236,-1.0229,-1.0219,-1.0211,-1.0201,-1.0202,-1.0198,-1.0189,-1.0181,-1.017,-1.0182,-1.0164,-1.0163,-1.0165,-1.0148,-1.0147,-1.013,-1.0153,-1.0153,-1.0152,0,-1.0302,-1.0291,-1.0273,-1.0258,-1.0254,-1.0245,-1.0231,-1.0222,-1.0209,-1.0205,-1.0195,-1.0191,-1.0177,-1.0181,-1.0161,-1.0169,-1.0161,-1.0155,-1.0154,-1.0152,-1.0157,-1.0143,-1.0124,-1.0121,-1.0149,-1.0149,-1.0149,0,-1.03,-1.0281,-1.0267,-1.0261,-1.0244,-1.0237,-1.023,-1.0217,-1.0209,-1.0196,-1.019,-1.0177,-1.0169,-1.0157,-1.0148,-1.0153,-1.0127,-1.0132,-1.0121,-1.0121,-1.0116,-1.0116,-1.0094,-1.0113,-1.0113,-1.0113,-1.0113,0,-1.0292,-1.0281,-1.0266,-1.0257,-1.0244,-1.0235,-1.0221,-1.0213,-1.0201,-1.0189,-1.0184,-1.0173,-1.0162,-1.0149,-1.0142,-1.0124,-1.0121,-1.0115,-1.0113,-1.0115,-1.0115,-1.0109,-1.011,-1.0113,-1.0113,-1.0113,-1.0113,0,-1.0289,-1.0278,-1.0262,-1.0246,-1.0241,-1.0231,-1.0217,-1.0207,-1.0198,-1.0183,-1.0179,-1.0166,-1.0149,-1.0139,-1.0119,-1.0114,-1.0093,-1.0092,-1.0097,-1.0096,-1.0085,-1.0085,-1.0057,-1.0051,-1.0076,-1.0075,-1.0075,0,-1.0284,-1.0274,-1.0256,-1.0247,-1.0239,-1.0225,-1.0216,-1.0205,-1.0196,-1.0178,-1.0169,-1.0152,-1.0138,-1.0112,-1.0099,-1.0083,-1.008,-1.0071,-1.0078,-1.0078,-1.0077,-1.0077,-1.0075,-1.007,-1.007,-1.007,-1.007,0,-1.0275,-1.0269,-1.0256,-1.0239,-1.0227,-1.0214,-1.0201,-1.0194,-1.0181,-1.0169,-1.0152,-1.0141,-1.0118,-1.01,-1.0081,-1.0072,-1.0067,-1.0067,-1.0063,-1.0065,-1.0067,-1.0063,-1.0092,-1.0068,-1.0068,-1.0068,-1.0068,-1.0068,-1.0269,-1.0259,-1.0243,-1.0227,-1.0215,-1.0202,-1.0191,-1.0179,-1.0165,-1.0145,-1.0139,-1.012,-1.0103,-1.0078,-1.0067,-1.0051,-1.0052,-1.0047,-1.0046,-1.0044,-1.0042,-1.007,-1.0047,-1.0047,-1.0048,-1.0048,-1.0048,0,-1.0258,-1.0246,-1.0232,-1.0212,-1.0198,-1.0194,-1.0178,-1.0167,-1.015,-1.0135,-1.012,-1.0097,-1.0079,-1.0063,-1.0043,-1.0033,-1.003,-1.0028,-1.0028,-1.0025,-1.0044,-1.0048,-1.003,-1.003,-1.003,-1.003,-1.003,-1.003,-1.0251,-1.0232,-1.0224,-1.0199,-1.0187,-1.0168,-1.0158,-1.0145,-1.0132,-1.0107,-1.0091,-1.0081,-1.0064,-1.0042,-1.0024,-1.0019,-1.0011,-1.0009,-1.0004,-1.0022,-1.0024,-1.0026,-1.003,-1.0008,-1.0008,-0.9986,-0.9986,-0.9986]},{"header":{"parameterUnit":"m.s-1","parameterCategory":1,"la1":30.2991,"la2":30.254,"lo1":-89.0895,"lo2":-89.0444,"dy":0.0017,"dx":0.0017,"nx":28,"ny":28,"refTime":"2025-11-06T09:00:00:Z","depth":0,"parameterNumber":3,"parameterNumberName":"V-component_of_WINDS"},"data":[0,0,0,0,0,0,0,0,0,0,0,0,0,0,0,0,0,0,0,0,0,0,0,0,0,0,0,0,0,0,0,0,0,0,0,0,0,0,0,0,0,0,0,0,0,0,0,0,0,0,0,0,0,0,0,0,0,0,1.6102,1.6103,0,1.6273,1.6275,1.6277,1.6338,1.6338,1.6337,1.6336,1.6515,1.6521,1.6526,0,0,0,0,0,0,0,0,0,0,0,0,0,1.5833,1.5837,1.6101,1.6104,1.6106,1.6273,1.6275,1.6277,1.6338,1.6338,1.6337,1.6336,1.6514,1.652,1.6526,0,0,0,0,0,0,0,0,0,0,0,0,0,1.5971,1.5839,1.6101,1.6156,1.6163,1.6272,1.6275,1.6278,1.6339,1.6338,1.6337,1.6336,1.6512,1.6519,1.6527,1.6595,0,0,1.6552,1.6555,0,0,0,0,0,0,0,0,1.5963,1.5981,1.6146,1.6153,1.616,1.6283,1.6246,1.6385,1.6339,1.6272,1.6336,1.6335,1.6439,1.6453,1.6487,1.6604,1.6611,1.6552,1.6557,1.6561,1.6563,0,0,0,0,0,0,0,1.5954,1.5974,1.6169,1.6148,1.6157,1.6174,1.6193,1.6273,1.6359,1.6278,1.6283,1.6302,1.6443,1.6479,1.6492,1.6614,1.6552,1.6559,1.6564,1.6567,1.6799,1.68,0,0,0,0,0,0,1.5934,1.5966,1.6164,1.6175,1.6057,1.618,1.6201,1.6245,1.6358,1.6374,1.6302,1.6304,1.6466,1.6483,1.6499,1.6589,1.6561,1.6568,1.6573,1.6798,1.6799,1.6801,0,0,0,0,0,0,1.5928,1.5951,1.6157,1.6072,1.6099,1.6185,1.6234,1.6249,1.6285,1.6377,1.6393,1.6324,1.6466,1.6487,1.6572,1.6596,1.6572,1.6579,1.6796,1.6798,1.68,1.6767,0,0,0,0,0,0,1.592,1.5949,1.5974,1.6072,1.6103,1.6225,1.6236,1.6253,1.6299,1.6302,1.6401,1.6416,1.6467,1.6559,1.6579,1.6606,1.6585,1.6794,1.6797,1.68,1.6766,1.6768,1.6769,0,0,0,0,0,1.591,1.5958,1.5975,1.5999,1.6137,1.6227,1.6245,1.6301,1.63,1.6328,1.6387,1.6413,1.6589,1.6567,1.6591,1.662,1.6793,1.6796,1.6799,1.6766,1.6767,1.6769,0,0,0,0,0,0,1.5862,1.5972,1.5992,1.6072,1.6139,1.6237,1.6273,1.6301,1.6371,1.6371,1.6439,1.6461,1.6541,1.6589,1.6562,1.6694,1.6693,1.6701,1.666,1.6662,1.6663,1.6651,1.6592,0,0,0,0,0,1.586,1.5922,1.6016,1.6077,1.611,1.6185,1.6227,1.6264,1.6338,1.6367,1.6432,1.6503,1.6575,1.6621,1.6692,1.6773,1.6798,1.6805,1.6806,1.6807,1.6814,1.6864,1.687,1.6811,1.6811,1.6811,0,0,1.5858,1.5925,1.5961,1.6069,1.6126,1.6191,1.6209,1.6277,1.6327,1.6377,1.6462,1.6512,1.6596,1.668,1.672,1.6723,1.6835,1.6811,1.6811,1.6817,1.6868,1.6873,1.6878,1.6813,1.6813,1.6812,0,0,1.5887,1.5943,1.6002,1.6059,1.6145,1.6195,1.6209,1.6303,1.6338,1.6423,1.6464,1.6525,1.6646,1.6706,1.6752,1.6806,1.6835,1.6827,1.6834,1.6882,1.6887,1.6892,1.6914,1.6921,1.6833,1.6833,1.6833,0,1.5874,1.5972,1.6029,1.6096,1.6144,1.6192,1.6254,1.6307,1.6412,1.6445,1.6445,1.6601,1.666,1.6761,1.6774,1.6809,1.683,1.6817,1.6881,1.6887,1.6892,1.6914,1.6922,1.6832,1.6832,1.6832,1.6832,0,1.5953,1.6021,1.6058,1.6158,1.621,1.6274,1.6343,1.639,1.6423,1.6474,1.6562,1.6636,1.6724,1.675,1.6784,1.6857,1.6856,1.6868,1.6869,1.6895,1.6917,1.6926,1.683,1.6831,1.6831,1.6831,0,0,1.5956,1.6088,1.6101,1.6148,1.6247,1.6302,1.6369,1.6454,1.6494,1.6565,1.6625,1.6728,1.6741,1.6793,1.6834,1.6876,1.6918,1.6884,1.6887,1.689,1.7007,1.6999,1.7008,1.6937,1.6939,1.694,1.7001,0,1.6001,1.6121,1.6176,1.6273,1.6338,1.6386,1.6446,1.6514,1.6564,1.6628,1.6684,1.6757,1.6766,1.6799,1.6842,1.6904,1.6943,1.69,1.6997,1.6999,1.6976,1.7019,1.701,1.7063,1.701,1.7011,1.7012,0,1.6068,1.6139,1.6242,1.6336,1.6366,1.6417,1.6502,1.6562,1.6642,1.6675,1.6734,1.6774,1.685,1.6844,1.6951,1.692,1.6963,1.7,1.7003,1.7016,1.7009,1.7035,1.7082,1.7091,1.7026,1.7025,1.7024,0,1.6064,1.6185,1.6263,1.6302,1.6412,1.6448,1.6496,1.6575,1.6624,1.6698,1.6731,1.6813,1.6859,1.6923,1.6985,1.6975,1.7087,1.7086,1.712,1.7119,1.7143,1.7141,1.7199,1.7166,1.7166,1.7166,1.7166,0,1.6109,1.6171,1.6263,1.6311,1.6384,1.6447,1.6517,1.6569,1.6639,1.6701,1.6747,1.6804,1.6881,1.6949,1.6998,1.7081,1.7101,1.7132,1.7145,1.713,1.7126,1.716,1.7159,1.7168,1.7168,1.7167,1.7167,0,1.6116,1.618,1.6269,1.6367,1.6393,1.6442,1.6527,1.6577,1.6629,1.6707,1.6729,1.6812,1.6894,1.6962,1.707,1.7103,1.7191,1.7204,1.7163,1.7171,1.7202,1.7199,1.7286,1.7302,1.7255,1.7256,1.7256,0,1.6142,1.6191,1.6293,1.6337,1.6384,1.6454,1.6505,1.657,1.6621,1.6717,1.6757,1.6842,1.6914,1.7044,1.7116,1.72,1.7217,1.7242,1.723,1.7214,1.7221,1.7218,1.7225,1.7243,1.7243,1.7244,1.7244,0,1.6181,1.6211,1.628,1.6362,1.6421,1.6488,1.6557,1.6591,1.667,1.6725,1.681,1.6865,1.6976,1.7062,1.7154,1.7206,1.724,1.7247,1.726,1.7245,1.7221,1.7238,1.7169,1.7245,1.7245,1.7245,1.7244,1.7244,1.6201,1.6248,1.6328,1.6405,1.6463,1.6528,1.658,1.664,1.6711,1.6805,1.684,1.6927,1.701,1.7136,1.7189,1.7261,1.7264,1.7282,1.7287,1.7291,1.7291,1.7207,1.7277,1.7277,1.7277,1.7277,1.7278,0,1.6245,1.6299,1.6369,1.6464,1.6526,1.655,1.6628,1.6679,1.6755,1.6828,1.6898,1.6997,1.7081,1.7159,1.7248,1.729,1.7308,1.7312,1.731,1.7323,1.728,1.7262,1.7296,1.7296,1.7296,1.7296,1.7296,1.7296,1.6275,1.6357,1.6396,1.6509,1.6563,1.6648,1.6691,1.6752,1.6811,1.6919,1.6988,1.7038,1.7115,1.721,1.729,1.7311,1.7343,1.7343,1.7368,1.7328,1.7325,1.7323,1.7306,1.7349,1.7349,1.7405,1.7406,1.7406]}]]